Location: Ettringen
(48.1054°N, 10.6545°E)
Time: 06:35:14
(UTC+00:00)

CZ-4C R/B - Pass Details

Date: 18 November 2025
Orbit: 487 x 1492 km, 63.4° (Epoch: 06 December)

Event Time Altitude Azimuth Distance (km) Brightness Sun altitude
Rises 18:45:27 0° 306° (NW) 3,262 6.1 -31.4°
Reaches altitude 10° 18:48:18 10° 324° (NW) 2,502 5.1 -31.8°
Enters shadow 18:51:48 20° 1° (N) 2,064 4.2 -32.4°
